[[{"header":{"parameterUnit":"m.s-1","parameterCategory":1,"la1":30.2991,"la2":30.254,"lo1":-89.0895,"lo2":-89.0444,"dy":0.0017,"dx":0.0017,"nx":28,"ny":28,"refTime":"2023-09-27T21:00:00:Z","depth":0,"parameterNumber":2,"parameterNumberName":"U-component_of_WINDS"},"data":[0,0,0,0,0,0,0,0,0,0,0,0,0,0,0,0,0,0,0,0,0,0,0,0,0,0,0,0,0,0,0,0,0,0,0,0,0,0,0,0,0,0,0,0,0,0,0,0,0,0,0,0,0,0,0,0,0,0,-3.4558,-3.4557,0,-3.4495,-3.4495,-3.4494,-3.4352,-3.4349,-3.4346,-3.4343,-3.4283,-3.4284,-3.4285,0,0,0,0,0,0,0,0,0,0,0,0,0,-3.4559,-3.456,-3.4558,-3.4557,-3.4556,-3.4495,-3.4495,-3.4494,-3.4352,-3.4349,-3.4345,-3.4342,-3.4283,-3.4284,-3.4285,0,0,0,0,0,0,0,0,0,0,0,0,0,-3.4534,-3.456,-3.4558,-3.4478,-3.447,-3.4496,-3.4495,-3.4493,-3.4353,-3.4349,-3.4344,-3.434,-3.4282,-3.4284,-3.4286,-3.4384,0,0,-3.4291,-3.4292,0,0,0,0,0,0,0,0,-3.4536,-3.4534,-3.4491,-3.4484,-3.4475,-3.4427,-3.4473,-3.4457,-3.4354,-3.4398,-3.4343,-3.4338,-3.4335,-3.4332,-3.433,-3.4381,-3.4379,-3.4291,-3.4292,-3.4293,-3.4293,0,0,0,0,0,0,0,-3.4538,-3.4536,-3.4533,-3.449,-3.4481,-3.4447,-3.4439,-3.4469,-3.4392,-3.4394,-3.4383,-3.4378,-3.433,-3.4329,-3.4327,-3.4378,-3.4291,-3.4292,-3.4293,-3.4294,-3.451,-3.4515,0,0,0,0,0,0,-3.455,-3.4538,-3.4535,-3.4531,-3.4495,-3.4451,-3.4441,-3.4447,-3.4391,-3.4378,-3.4381,-3.4371,-3.4328,-3.4326,-3.4325,-3.4438,-3.4293,-3.4294,-3.4295,-3.4506,-3.4511,-3.4516,0,0,0,0,0,0,-3.4551,-3.4551,-3.4538,-3.4532,-3.4528,-3.4455,-3.4463,-3.4448,-3.4447,-3.4382,-3.4368,-3.4394,-3.4324,-3.4322,-3.4371,-3.4434,-3.4295,-3.4297,-3.45,-3.4507,-3.4514,-3.4666,0,0,0,0,0,0,-3.4551,-3.4552,-3.4588,-3.4534,-3.4528,-3.4584,-3.4467,-3.445,-3.4449,-3.4436,-3.439,-3.4378,-3.4321,-3.4369,-3.4373,-3.4434,-3.4298,-3.4494,-3.4503,-3.4512,-3.4655,-3.4678,-3.4697,0,0,0,0,0,-3.4552,-3.4633,-3.459,-3.4591,-3.4571,-3.4588,-3.4585,-3.4516,-3.4455,-3.4491,-3.445,-3.438,-3.4427,-3.4375,-3.4378,-3.4441,-3.449,-3.4501,-3.4511,-3.4646,-3.4673,-3.4696,0,0,0,0,0,0,-3.4698,-3.4625,-3.4576,-3.4642,-3.4622,-3.4564,-3.4607,-3.4546,-3.4544,-3.4531,-3.4446,-3.4437,-3.4498,-3.4474,-3.4418,-3.4535,-3.4447,-3.4459,-3.4549,-3.4574,-3.4595,-3.46,-3.4299,0,0,0,0,0,-3.4737,-3.4755,-3.4691,-3.4756,-3.4748,-3.468,-3.4684,-3.4633,-3.4609,-3.46,-3.4562,-3.4543,-3.4553,-3.4562,-3.4568,-3.4651,-3.464,-3.4696,-3.4716,-3.4734,-3.4746,-3.479,-3.4815,-3.4551,-3.4551,-3.4551,0,0,-3.482,-3.4782,-3.4799,-3.4784,-3.4763,-3.4785,-3.4674,-3.4701,-3.4718,-3.4605,-3.4648,-3.462,-3.4593,-3.466,-3.4688,-3.4642,-3.4816,-3.4747,-3.4762,-3.4764,-3.4804,-3.4829,-3.4851,-3.4558,-3.4557,-3.4556,0,0,-3.4982,-3.4954,-3.5006,-3.4987,-3.4955,-3.491,-3.4923,-3.4873,-3.485,-3.4892,-3.4809,-3.4828,-3.4847,-3.4832,-3.4827,-3.4986,-3.4922,-3.499,-3.5099,-3.5144,-3.5165,-3.5183,-3.5242,-3.5264,-3.5001,-3.5002,-3.5002,0,-3.5089,-3.5118,-3.5041,-3.5075,-3.5072,-3.497,-3.5023,-3.5008,-3.4981,-3.4983,-3.4931,-3.4955,-3.4929,-3.4992,-3.5031,-3.503,-3.5044,-3.4995,-3.5167,-3.5185,-3.5201,-3.5256,-3.5278,-3.501,-3.5009,-3.5008,-3.5008,0,-3.5252,-3.5274,-3.532,-3.5296,-3.5298,-3.5342,-3.5273,-3.5285,-3.5234,-3.5194,-3.524,-3.5206,-3.5204,-3.5215,-3.5166,-3.5273,-3.5245,-3.5182,-3.5092,-3.5236,-3.5286,-3.5307,-3.5023,-3.502,-3.5017,-3.5015,0,0,-3.5504,-3.5438,-3.5456,-3.5445,-3.5403,-3.542,-3.546,-3.5457,-3.547,-3.5455,-3.5488,-3.5508,-3.5449,-3.5444,-3.5392,-3.5431,-3.5562,-3.5363,-3.5361,-3.5403,-3.5681,-3.573,-3.5756,-3.5519,-3.5523,-3.5526,-3.5684,0,-3.5658,-3.5721,-3.5654,-3.5732,-3.5753,-3.5657,-3.5692,-3.5672,-3.5636,-3.565,-3.5611,-3.5627,-3.5547,-3.5544,-3.5578,-3.5539,-3.5617,-3.5526,-3.5552,-3.5554,-3.5563,-3.5782,-3.5834,-3.5985,-3.5703,-3.5706,-3.5709,0,-3.5845,-3.5839,-3.592,-3.5875,-3.5881,-3.5914,-3.5908,-3.5921,-3.5897,-3.5868,-3.5864,-3.5801,-3.5839,-3.5751,-3.5804,-3.5744,-3.575,-3.5733,-3.5737,-3.5738,-3.5641,-3.5792,-3.6031,-3.6055,-3.5739,-3.5736,-3.5734,0,-3.6025,-3.6036,-3.6086,-3.6079,-3.6028,-3.6054,-3.6034,-3.6005,-3.6009,-3.6003,-3.6005,-3.6005,-3.6006,-3.6008,-3.5948,-3.5889,-3.601,-3.5916,-3.599,-3.5992,-3.6021,-3.602,-3.6267,-3.6022,-3.6022,-3.6021,-3.6021,0,-3.6204,-3.6258,-3.6166,-3.6197,-3.6255,-3.6178,-3.6238,-3.6208,-3.6184,-3.6209,-3.6126,-3.6152,-3.607,-3.6088,-3.6041,-3.6094,-3.6094,-3.6074,-3.6061,-3.6082,-3.6086,-3.6087,-3.6076,-3.6027,-3.6026,-3.6025,-3.6024,0,-3.6414,-3.6354,-3.6403,-3.6351,-3.6339,-3.6384,-3.634,-3.6368,-3.6327,-3.636,-3.6364,-3.6301,-3.6318,-3.6257,-3.6264,-3.6233,-3.6312,-3.628,-3.632,-3.6311,-3.6389,-3.6384,-3.6647,-3.6679,-3.6413,-3.6415,-3.6417,0,-3.6534,-3.6573,-3.6525,-3.6535,-3.652,-3.6537,-3.6541,-3.6467,-3.6475,-3.6451,-3.6483,-3.6492,-3.6496,-3.6528,-3.6484,-3.649,-3.646,-3.6552,-3.646,-3.6481,-3.6464,-3.6463,-3.6468,-3.6571,-3.6575,-3.6577,-3.6579,0,-3.6753,-3.6722,-3.6729,-3.6728,-3.6734,-3.6729,-3.6719,-3.6733,-3.6654,-3.6667,-3.6682,-3.6686,-3.6693,-3.6705,-3.6701,-3.6682,-3.662,-3.6609,-3.6626,-3.665,-3.6672,-3.6663,-3.6374,-3.6603,-3.6601,-3.6599,-3.6598,-3.6597,-3.6922,-3.6954,-3.6925,-3.6937,-3.6922,-3.6915,-3.6939,-3.6901,-3.6913,-3.6913,-3.6869,-3.6894,-3.6871,-3.686,-3.6848,-3.6868,-3.6826,-3.6851,-3.6858,-3.6866,-3.688,-3.6667,-3.6867,-3.6866,-3.6865,-3.6865,-3.6864,0,-3.7139,-3.7117,-3.7128,-3.7117,-3.7127,-3.7065,-3.7051,-3.7064,-3.7087,-3.707,-3.7076,-3.7096,-3.7108,-3.7065,-3.7071,-3.7096,-3.7068,-3.7101,-3.7099,-3.7096,-3.6916,-3.6902,-3.7124,-3.7124,-3.7124,-3.7124,-3.7123,-3.7123,-3.7254,-3.7304,-3.727,-3.7313,-3.729,-3.7313,-3.7311,-3.7305,-3.7291,-3.7317,-3.7326,-3.7298,-3.7272,-3.7275,-3.7284,-3.7272,-3.7279,-3.7323,-3.7301,-3.7134,-3.7109,-3.7085,-3.707,-3.7324,-3.7324,-3.7479,-3.748,-3.7481]},{"header":{"parameterUnit":"m.s-1","parameterCategory":1,"la1":30.2991,"la2":30.254,"lo1":-89.0895,"lo2":-89.0444,"dy":0.0017,"dx":0.0017,"nx":28,"ny":28,"refTime":"2023-09-27T21:00:00:Z","depth":0,"parameterNumber":3,"parameterNumberName":"V-component_of_WINDS"},"data":[0,0,0,0,0,0,0,0,0,0,0,0,0,0,0,0,0,0,0,0,0,0,0,0,0,0,0,0,0,0,0,0,0,0,0,0,0,0,0,0,0,0,0,0,0,0,0,0,0,0,0,0,0,0,0,0,0,0,-0.6297,-0.6297,0,-0.6305,-0.6305,-0.6305,-0.6287,-0.6287,-0.6286,-0.6285,-0.6296,-0.6297,-0.6298,0,0,0,0,0,0,0,0,0,0,0,0,0,-0.6266,-0.6266,-0.6296,-0.6297,-0.6297,-0.6305,-0.6305,-0.6305,-0.6287,-0.6287,-0.6286,-0.6285,-0.6296,-0.6297,-0.6298,0,0,0,0,0,0,0,0,0,0,0,0,0,-0.6277,-0.6266,-0.6296,-0.6289,-0.6288,-0.6305,-0.6305,-0.6306,-0.6287,-0.6287,-0.6286,-0.6285,-0.6296,-0.6297,-0.6298,-0.6324,0,0,-0.6302,-0.6302,0,0,0,0,0,0,0,0,-0.6277,-0.6278,-0.629,-0.6289,-0.6289,-0.6294,-0.6298,-0.6312,-0.6288,-0.6288,-0.6285,-0.6284,-0.6296,-0.6297,-0.6301,-0.6324,-0.6325,-0.6302,-0.6303,-0.6303,-0.6304,0,0,0,0,0,0,0,-0.6276,-0.6278,-0.63,-0.629,-0.6289,-0.6285,-0.6286,-0.6301,-0.6297,-0.6288,-0.6286,-0.6288,-0.6296,-0.63,-0.6301,-0.6325,-0.6302,-0.6303,-0.6304,-0.6304,-0.6371,-0.6372,0,0,0,0,0,0,-0.6276,-0.6277,-0.63,-0.63,-0.628,-0.6286,-0.6287,-0.6293,-0.6297,-0.6296,-0.6288,-0.6287,-0.6298,-0.63,-0.6302,-0.6333,-0.6303,-0.6304,-0.6305,-0.637,-0.6371,-0.6372,0,0,0,0,0,0,-0.6275,-0.6278,-0.6299,-0.6288,-0.6291,-0.6288,-0.6295,-0.6294,-0.6298,-0.6297,-0.6297,-0.6293,-0.6298,-0.63,-0.6319,-0.6333,-0.6305,-0.6306,-0.6369,-0.637,-0.6372,-0.6396,0,0,0,0,0,0,-0.6274,-0.6278,-0.6287,-0.6289,-0.6291,-0.6316,-0.6296,-0.6295,-0.63,-0.6298,-0.6302,-0.6301,-0.6297,-0.6317,-0.632,-0.6335,-0.6307,-0.6367,-0.6369,-0.6371,-0.6394,-0.6399,-0.6402,0,0,0,0,0,-0.6273,-0.6294,-0.6288,-0.6291,-0.6303,-0.6317,-0.6318,-0.6313,-0.6301,-0.6311,-0.6311,-0.6301,-0.6331,-0.6319,-0.6322,-0.6338,-0.6366,-0.6369,-0.6371,-0.6393,-0.6398,-0.6402,0,0,0,0,0,0,-0.6295,-0.6294,-0.6287,-0.6309,-0.6313,-0.6314,-0.6326,-0.6318,-0.6326,-0.6324,-0.6316,-0.6317,-0.6338,-0.6339,-0.6326,-0.6363,-0.6347,-0.635,-0.6362,-0.6367,-0.6371,-0.6371,-0.6308,0,0,0,0,0,-0.6302,-0.6312,-0.6311,-0.633,-0.6333,-0.6329,-0.6335,-0.633,-0.6334,-0.6336,-0.6337,-0.6342,-0.6352,-0.6359,-0.6369,-0.6394,-0.6395,-0.6406,-0.641,-0.6413,-0.6417,-0.6431,-0.6437,-0.638,-0.638,-0.638,0,0,-0.6317,-0.6318,-0.6325,-0.6335,-0.6337,-0.635,-0.6331,-0.6344,-0.6353,-0.6338,-0.6356,-0.6357,-0.6362,-0.6384,-0.6394,-0.6386,-0.6432,-0.6416,-0.6419,-0.642,-0.6434,-0.644,-0.6445,-0.6381,-0.6381,-0.6381,0,0,-0.6351,-0.6352,-0.6369,-0.6372,-0.6376,-0.6373,-0.6377,-0.6379,-0.6379,-0.6397,-0.6386,-0.6397,-0.6414,-0.6419,-0.6424,-0.6459,-0.6452,-0.6462,-0.6484,-0.6499,-0.6503,-0.6507,-0.6522,-0.6527,-0.6465,-0.6465,-0.6465,0,-0.637,-0.6387,-0.6379,-0.6393,-0.6398,-0.6384,-0.6402,-0.6405,-0.6412,-0.6417,-0.6407,-0.6429,-0.6432,-0.6456,-0.6464,-0.6468,-0.6473,-0.6463,-0.6503,-0.6507,-0.6511,-0.6525,-0.653,-0.6467,-0.6467,-0.6466,-0.6466,0,-0.6411,-0.6423,-0.6436,-0.6443,-0.6449,-0.6465,-0.646,-0.6468,-0.6462,-0.646,-0.6479,-0.6481,-0.6491,-0.6496,-0.6491,-0.652,-0.6515,-0.6504,-0.6488,-0.6518,-0.6531,-0.6536,-0.6469,-0.6468,-0.6468,-0.6468,0,0,-0.6461,-0.6462,-0.6468,-0.6471,-0.6474,-0.6484,-0.6499,-0.6509,-0.6516,-0.6521,-0.6535,-0.655,-0.654,-0.6546,-0.654,-0.6553,-0.6583,-0.6541,-0.6541,-0.655,-0.6617,-0.6627,-0.6633,-0.6577,-0.6578,-0.6578,-0.6618,0,-0.6496,-0.6523,-0.6515,-0.6542,-0.6554,-0.654,-0.6554,-0.6558,-0.6557,-0.6567,-0.6565,-0.6577,-0.6562,-0.6566,-0.6577,-0.6577,-0.6597,-0.6574,-0.6591,-0.6592,-0.6593,-0.664,-0.665,-0.6687,-0.6622,-0.6623,-0.6624,0,-0.6542,-0.6549,-0.6577,-0.6578,-0.6583,-0.6595,-0.6604,-0.6613,-0.6618,-0.6616,-0.6622,-0.6614,-0.663,-0.6612,-0.6635,-0.6619,-0.6625,-0.6626,-0.6628,-0.6631,-0.6612,-0.6647,-0.6699,-0.6705,-0.6631,-0.6631,-0.663,0,-0.6578,-0.6594,-0.6613,-0.6616,-0.6618,-0.6628,-0.6629,-0.6632,-0.6639,-0.6646,-0.665,-0.6659,-0.6665,-0.6673,-0.6668,-0.6655,-0.6692,-0.6673,-0.6693,-0.6693,-0.6703,-0.6703,-0.6759,-0.6703,-0.6703,-0.6703,-0.6703,0,-0.662,-0.6638,-0.663,-0.6642,-0.6662,-0.6653,-0.6674,-0.6673,-0.6676,-0.6689,-0.6677,-0.6689,-0.668,-0.6692,-0.6688,-0.6709,-0.6711,-0.6711,-0.671,-0.6713,-0.6714,-0.672,-0.6718,-0.6705,-0.6704,-0.6704,-0.6704,0,-0.6665,-0.666,-0.668,-0.668,-0.6681,-0.6696,-0.6696,-0.6708,-0.6705,-0.6721,-0.6724,-0.6721,-0.6733,-0.6729,-0.6742,-0.674,-0.6767,-0.6761,-0.6766,-0.6765,-0.6786,-0.6785,-0.685,-0.6859,-0.6795,-0.6795,-0.6796,0,-0.6694,-0.6707,-0.6709,-0.6716,-0.6718,-0.673,-0.6737,-0.6728,-0.6736,-0.6741,-0.6753,-0.6764,-0.6774,-0.6795,-0.6794,-0.6805,-0.6801,-0.6823,-0.6803,-0.6806,-0.6804,-0.6805,-0.6807,-0.6828,-0.6829,-0.6829,-0.683,0,-0.6745,-0.6742,-0.6752,-0.6761,-0.6769,-0.6775,-0.6781,-0.6788,-0.678,-0.6789,-0.6802,-0.6809,-0.6822,-0.6835,-0.6844,-0.6846,-0.6838,-0.6835,-0.6841,-0.6846,-0.6849,-0.685,-0.6779,-0.6835,-0.6834,-0.6834,-0.6834,-0.6833,-0.6785,-0.6797,-0.68,-0.6812,-0.6815,-0.682,-0.6832,-0.683,-0.6841,-0.6851,-0.6845,-0.6861,-0.6865,-0.6877,-0.688,-0.6893,-0.6884,-0.6892,-0.6894,-0.6897,-0.6901,-0.6845,-0.6894,-0.6894,-0.6894,-0.6894,-0.6893,0,-0.6838,-0.6839,-0.685,-0.6858,-0.6867,-0.6856,-0.6862,-0.6871,-0.6884,-0.6889,-0.6898,-0.6913,-0.6925,-0.6925,-0.6936,-0.6946,-0.6942,-0.695,-0.695,-0.6951,-0.6906,-0.6902,-0.6953,-0.6953,-0.6953,-0.6952,-0.6952,-0.6952,-0.6867,-0.6888,-0.6885,-0.6907,-0.6908,-0.6923,-0.6928,-0.6933,-0.6937,-0.6954,-0.6964,-0.6963,-0.6966,-0.6977,-0.6988,-0.6987,-0.6993,-0.7003,-0.7001,-0.696,-0.6954,-0.6949,-0.6944,-0.7003,-0.7003,-0.7045,-0.7046,-0.7046]}]]